| time (UTC) | temp F | wind direction | speed MPH | gust MPH | rain 1hr in | rain 24hr in | rain mn in | humidity % | barometer mb |
| 20260507073728 | 54 | 174 | 2.0 | 8.0 | 0.00 | 0.00 | 0.00 | 89 | 1002.0 |
| 20260507073226 | 54 | 236 | 2.0 | 7.0 | 0.00 | 0.00 | 0.00 | 89 | 1002.0 |
| 20260507072725 | 54 | 196 | 3.0 | 7.0 | 0.00 | 0.00 | 0.00 | 89 | 1002.0 |
| 20260507072226 | 54 | 186 | 3.0 | 7.0 | 0.00 | 0.00 | 0.00 | 89 | 1001.9 |
| 20260507071726 | 54 | 225 | 2.0 | 7.0 | 0.00 | 0.00 | 0.00 | 89 | 1001.9 |
| 20260507071227 | 54 | 181 | 2.0 | 7.0 | 0.00 | 0.00 | 0.00 | 89 | 1001.9 |
| 20260507070725 | 54 | 189 | 3.0 | 7.0 | 0.00 | 0.00 | 0.00 | 89 | 1001.8 |
| 20260507065725 | 54 | 240 | 4.0 | 9.0 | 0.00 | 0.00 | 0.00 | 89 | 1001.9 |
| 20260507064724 | 54 | 173 | 4.0 | 9.0 | 0.00 | 0.00 | 0.00 | 89 | 1001.9 |
| 20260507064224 | 54 | 177 | 4.0 | 9.0 | 0.00 | 0.00 | 0.00 | 89 | 1001.8 |
| 20260507063725 | 54 | 187 | 4.0 | 9.0 | 0.00 | 0.00 | 0.00 | 89 | 1001.9 |
| 20260507063224 | 54 | 178 | 4.0 | 9.0 | 0.00 | 0.00 | 0.00 | 89 | 1001.9 |
| 20260507062212 | 54 | 165 | 4.0 | 9.0 | 0.00 | 0.00 | 0.00 | 88 | 1001.9 |
| 20260507061706 | 54 | 201 | 3.0 | 9.0 | 0.00 | 0.00 | 0.00 | 88 | 1001.9 |
| 20260507061201 | 54 | 159 | 3.0 | 7.0 | 0.00 | 0.00 | 0.00 | 88 | 1001.9 |
| 20260507060655 | 54 | 180 | 3.0 | 7.0 | 0.00 | 0.00 | 0.00 | 88 | 1001.8 |
| 20260507060148 | 54 | 174 | 4.0 | 7.0 | 0.00 | 0.00 | 0.00 | 88 | 1001.8 |
| 20260507055137 | 54 | 206 | 5.0 | 10.0 | 0.00 | 0.00 | 0.00 | 88 | 1001.7 |
| 20260507054637 | 54 | 178 | 4.0 | 10.0 | 0.00 | 0.00 | 0.00 | 88 | 1001.8 |
| 20260507054139 | 55 | 186 | 4.0 | 11.0 | 0.00 | 0.00 | 0.00 | 87 | 1001.8 |
| 20260507053637 | 55 | 159 | 4.0 | 11.0 | 0.00 | 0.00 | 0.00 | 87 | 1001.7 |
| 20260507052635 | 55 | 215 | 5.0 | 10.0 | 0.00 | 0.00 | 0.00 | 87 | 1001.8 |
| 20260507052135 | 55 | 196 | 4.0 | 10.0 | 0.00 | 0.00 | 0.00 | 87 | 1001.8 |
| 20260507051637 | 56 | 161 | 3.0 | 11.0 | 0.00 | 0.00 | 0.00 | 87 | 1001.8 |
| 20260507051135 | 56 | 150 | 3.0 | 11.0 | 0.00 | 0.00 | 0.00 | 86 | 1001.7 |
| 20260507050635 | 56 | 198 | 3.0 | 8.0 | 0.00 | 0.00 | 0.00 | 86 | 1001.7 |
| 20260507045637 | 56 | 146 | 3.0 | 7.0 | 0.00 | 0.00 | 0.00 | 86 | 1001.8 |
| 20260507045133 | 56 | 192 | 3.0 | 8.0 | 0.00 | 0.00 | 0.00 | 86 | 1001.7 |
| 20260507044631 | 57 | 188 | 3.0 | 8.0 | 0.00 | 0.00 | 0.00 | 85 | 1001.7 |
| 20260507044132 | 57 | 191 | 3.0 | 7.0 | 0.00 | 0.00 | 0.00 | 85 | 1001.7 |
| 20260507043633 | 57 | 161 | 3.0 | 7.0 | 0.00 | 0.00 | 0.00 | 85 | 1001.7 |
| 20260507042632 | 58 | 157 | 2.0 | 8.0 | 0.00 | 0.00 | 0.00 | 84 | 1001.6 |
| 20260507042132 | 58 | 170 | 1.0 | 6.0 | 0.00 | 0.00 | 0.00 | 84 | 1001.7 |
| 20260507041631 | 58 | 166 | 0.0 | 4.0 | 0.00 | 0.00 | 0.00 | 83 | 1001.6 |
| 20260507041132 | 58 | 155 | 0.0 | 2.0 | 0.00 | 0.00 | 0.00 | 83 | 1001.6 |
| 20260507040632 | 58 | 155 | 1.0 | 6.0 | 0.00 | 0.00 | 0.00 | 83 | 1001.6 |
| 20260507035132 | 58 | 138 | 1.0 | 5.0 | 0.00 | 0.00 | 0.00 | 82 | 1001.4 |
| 20260507034631 | 59 | 161 | 0.0 | 0.0 | 0.00 | 0.00 | 0.00 | 83 | 1001.4 |
| 20260507034131 | 59 | 161 | 0.0 | 2.0 | 0.00 | 0.00 | 0.00 | 82 | 1001.4 |
| 20260507033132 | 59 | 161 | 0.0 | 0.0 | 0.00 | 0.00 | 0.00 | 82 | 1001.2 |
| 20260507032632 | 59 | 161 | 0.0 | 0.0 | 0.00 | 0.00 | 0.00 | 82 | 1001.1 |
| 20260507032131 | 59 | 161 | 0.0 | 0.0 | 0.00 | 0.00 | 0.00 | 81 | 1001.0 |
| 20260507031631 | 59 | 161 | 0.0 | 0.0 | 0.00 | 0.00 | 0.00 | 81 | 1000.9 |
| 20260507031133 | 59 | 161 | 0.0 | 0.0 | 0.00 | 0.00 | 0.00 | 81 | 1001.0 |
| 20260507030631 | 60 | 161 | 0.0 | 1.0 | 0.00 | 0.00 | 0.00 | 81 | 1001.0 |
| 20260507030128 | 60 | 161 | 0.0 | 1.0 | 0.00 | 0.00 | 0.00 | 81 | 1000.9 |
| 20260507025629 | 60 | 161 | 0.0 | 2.0 | 0.00 | 0.00 | 0.00 | 81 | 1001.0 |
| 20260507025126 | 60 | 161 | 1.0 | 5.0 | 0.00 | 0.00 | 0.00 | 81 | 1001.0 |
| 20260507024625 | 60 | 160 | 2.0 | 7.0 | 0.00 | 0.00 | 0.00 | 81 | 1001.0 |
| 20260507024127 | 60 | 167 | 3.0 | 7.0 | 0.00 | 0.00 | 0.00 | 80 | 1001.0 |
| 20260507023125 | 61 | 154 | 2.0 | 7.0 | 0.00 | 0.00 | 0.00 | 79 | 1000.9 |
| 20260507022624 | 61 | 170 | 3.0 | 9.0 | 0.00 | 0.00 | 0.00 | 79 | 1000.8 |
| 20260507022124 | 62 | 175 | 4.0 | 9.0 | 0.00 | 0.00 | 0.00 | 78 | 1000.8 |
| 20260507021617 | 62 | 132 | 4.0 | 9.0 | 0.00 | 0.00 | 0.00 | 78 | 1000.8 |
| 20260507021112 | 62 | 188 | 4.0 | 10.0 | 0.00 | 0.00 | 0.00 | 77 | 1000.8 |
| 20260507020607 | 63 | 164 | 4.0 | 10.0 | 0.00 | 0.00 | 0.00 | 76 | 1000.8 |
| 20260507020107 | 63 | 186 | 4.0 | 10.0 | 0.00 | 0.00 | 0.00 | 76 | 1000.8 |
| 20260507015608 | 63 | 169 | 3.0 | 7.0 | 0.00 | 0.00 | 0.00 | 75 | 1000.8 |
| 20260507015106 | 64 | 192 | 4.0 | 8.0 | 0.00 | 0.00 | 0.00 | 76 | 1000.8 |
| 20260507014607 | 64 | 165 | 4.0 | 8.0 | 0.00 | 0.00 | 0.00 | 75 | 1000.8 |
| 20260507014107 | 64 | 188 | 4.0 | 8.0 | 0.00 | 0.00 | 0.00 | 75 | 1000.8 |
| 20260507013603 | 64 | 178 | 4.0 | 8.0 | 0.00 | 0.00 | 0.00 | 75 | 1000.8 |
| 20260507013104 | 64 | 200 | 5.0 | 9.0 | 0.00 | 0.00 | 0.00 | 75 | 1000.7 |
| 20260507012604 | 64 | 188 | 5.0 | 9.0 | 0.00 | 0.00 | 0.00 | 74 | 1000.9 |
| 20260507012103 | 65 | 209 | 4.0 | 8.0 | 0.00 | 0.00 | 0.00 | 74 | 1000.9 |
| 20260507011102 | 65 | 160 | 4.0 | 9.0 | 0.00 | 0.00 | 0.00 | 73 | 1000.7 |
| 20260507010601 | 65 | 215 | 4.0 | 9.0 | 0.00 | 0.00 | 0.00 | 72 | 1000.9 |
| 20260507010100 | 66 | 181 | 5.0 | 9.0 | 0.00 | 0.00 | 0.00 | 72 | 1000.9 |
| 20260507005559 | 66 | 182 | 5.0 | 9.0 | 0.00 | 0.00 | 0.00 | 70 | 1000.9 |
| 20260507005059 | 67 | 161 | 4.0 | 9.0 | 0.00 | 0.00 | 0.00 | 70 | 1000.8 |
| 20260507004600 | 67 | 189 | 3.0 | 7.0 | 0.00 | 0.00 | 0.00 | 70 | 1000.9 |
| 20260507004053 | 67 | 238 | 3.0 | 7.0 | 0.00 | 0.00 | 0.00 | 71 | 1000.9 |
| 20260507003548 | 67 | 223 | 3.0 | 7.0 | 0.00 | 0.00 | 0.00 | 71 | 1000.9 |
| 20260507003046 | 67 | 202 | 3.0 | 8.0 | 0.00 | 0.00 | 0.00 | 71 | 1001.0 |
| 20260507002536 | 67 | 159 | 4.0 | 8.0 | 0.00 | 0.00 | 0.00 | 70 | 1001.0 |
| 20260507002036 | 67 | 252 | 4.0 | 8.0 | 0.00 | 0.00 | 0.00 | 70 | 1001.1 |
| 20260507001524 | 67 | 157 | 4.0 | 7.0 | 0.00 | 0.00 | 0.00 | 70 | 1001.0 |
| 20260507001017 | 67 | 188 | 4.0 | 8.0 | 0.00 | 0.00 | 0.00 | 69 | 1001.0 |
| 20260507000512 | 67 | 184 | 4.0 | 8.0 | 0.00 | 0.00 | 0.00 | 68 | 1001.1 |
| 20260507000006 | 68 | 210 | 5.0 | 10.0 | 0.00 | 0.00 | 0.00 | 69 | 1001.0 |
| 20260506235500 | 68 | 196 | 4.0 | 10.0 | 0.00 | 0.00 | 0.00 | 68 | 1001.1 |
| 20260506234448 | 68 | 200 | 3.0 | 7.0 | 0.00 | 0.00 | 0.00 | 67 | 1001.1 |
| 20260506233942 | 68 | 200 | 3.0 | 8.0 | 0.00 | 0.00 | 0.00 | 66 | 1001.1 |
| 20260506233435 | 68 | 241 | 4.0 | 9.0 | 0.00 | 0.00 | 0.00 | 67 | 1001.1 |
| 20260506232929 | 68 | 142 | 4.0 | 9.0 | 0.00 | 0.00 | 0.00 | 66 | 1001.0 |
| 20260506231917 | 68 | 265 | 3.0 | 7.0 | 0.00 | 0.00 | 0.00 | 68 | 1001.1 |
| 20260506231412 | 68 | 182 | 3.0 | 6.0 | 0.00 | 0.00 | 0.00 | 67 | 1001.2 |
| 20260506230906 | 68 | 231 | 3.0 | 7.0 | 0.00 | 0.00 | 0.00 | 67 | 1001.2 |
| 20260506225854 | 68 | 269 | 4.0 | 9.0 | 0.00 | 0.00 | 0.00 | 66 | 1001.2 |
| 20260506225348 | 69 | 227 | 4.0 | 8.0 | 0.00 | 0.00 | 0.00 | 67 | 1001.3 |
| 20260506224842 | 69 | 213 | 3.0 | 8.0 | 0.00 | 0.00 | 0.00 | 67 | 1001.3 |
| 20260506224336 | 69 | 172 | 3.0 | 7.0 | 0.00 | 0.00 | 0.00 | 65 | 1001.5 |
| 20260506223829 | 69 | 267 | 4.0 | 9.0 | 0.00 | 0.00 | 0.00 | 66 | 1001.4 |
| 20260506223324 | 69 | 160 | 4.0 | 9.0 | 0.00 | 0.00 | 0.00 | 65 | 1001.5 |
| 20260506222312 | 70 | 185 | 3.0 | 9.0 | 0.00 | 0.00 | 0.00 | 67 | 1001.6 |
| 20260506221806 | 69 | 209 | 4.0 | 10.0 | 0.00 | 0.00 | 0.00 | 66 | 1001.7 |
| 20260506221259 | 69 | 193 | 4.0 | 10.0 | 0.00 | 0.00 | 0.00 | 67 | 1001.8 |
| 20260506220754 | 68 | 185 | 4.0 | 10.0 | 0.00 | 0.00 | 0.00 | 68 | 1001.9 |
| 20260506220247 | 68 | 215 | 4.0 | 8.0 | 0.00 | 0.00 | 0.00 | 68 | 1001.9 |
| 20260506215741 | 68 | 202 | 4.0 | 8.0 | 0.00 | 0.00 | 0.00 | 68 | 1002.0 |
| 20260506215236 | 68 | 196 | 4.0 | 8.0 | 0.00 | 0.00 | 0.00 | 68 | 1002.1 |
| 20260506214730 | 68 | 213 | 4.0 | 9.0 | 0.00 | 0.00 | 0.00 | 67 | 1002.0 |
| 20260506213718 | 68 | 267 | 4.0 | 9.0 | 0.00 | 0.00 | 0.00 | 67 | 1002.1 |
| 20260506213218 | 69 | 196 | 3.0 | 8.0 | 0.00 | 0.00 | 0.00 | 67 | 1002.3 |
| 20260506212720 | 68 | 214 | 3.0 | 8.0 | 0.00 | 0.00 | 0.00 | 67 | 1002.4 |
| 20260506212218 | 69 | 206 | 3.0 | 8.0 | 0.00 | 0.00 | 0.00 | 66 | 1002.3 |
| 20260506211718 | 68 | 235 | 4.0 | 8.0 | 0.00 | 0.00 | 0.00 | 68 | 1002.3 |
| 20260506211218 | 69 | 207 | 3.0 | 7.0 | 0.00 | 0.00 | 0.00 | 66 | 1002.3 |
| 20260506210215 | 69 | 240 | 3.0 | 7.0 | 0.00 | 0.00 | 0.00 | 67 | 1002.2 |
| 20260506205716 | 69 | 208 | 3.0 | 8.0 | 0.00 | 0.00 | 0.00 | 67 | 1002.2 |
| 20260506205215 | 69 | 261 | 3.0 | 8.0 | 0.00 | 0.00 | 0.00 | 67 | 1002.3 |
| 20260506204715 | 69 | 190 | 3.0 | 7.0 | 0.00 | 0.00 | 0.00 | 67 | 1002.3 |
| 20260506204214 | 69 | 283 | 4.0 | 7.0 | 0.00 | 0.00 | 0.00 | 67 | 1002.4 |
| 20260506203716 | 69 | 217 | 3.0 | 7.0 | 0.00 | 0.00 | 0.00 | 67 | 1002.4 |
| 20260506203215 | 69 | 225 | 3.0 | 7.0 | 0.00 | 0.00 | 0.00 | 67 | 1002.5 |
| 20260506202715 | 69 | 211 | 3.0 | 7.0 | 0.00 | 0.00 | 0.00 | 66 | 1002.5 |
| 20260506202216 | 69 | 265 | 3.0 | 7.0 | 0.00 | 0.00 | 0.00 | 67 | 1002.5 |
| 20260506201716 | 69 | 158 | 3.0 | 7.0 | 0.00 | 0.00 | 0.00 | 66 | 1002.6 |
| 20260506201216 | 69 | 205 | 3.0 | 7.0 | 0.00 | 0.00 | 0.00 | 66 | 1002.6 |
| 20260506200710 | 69 | 255 | 3.0 | 7.0 | 0.00 | 0.00 | 0.00 | 67 | 1002.6 |
| 20260506200204 | 69 | 242 | 3.0 | 8.0 | 0.00 | 0.00 | 0.00 | 66 | 1002.7 |
| 20260506195658 | 68 | 221 | 3.0 | 8.0 | 0.00 | 0.00 | 0.00 | 66 | 1002.8 |
| 20260506193634 | 68 | 175 | 2.0 | 6.0 | 0.00 | 0.00 | 0.00 | 66 | 1002.9 |
| 20260506193128 | 68 | 217 | 2.0 | 4.0 | 0.00 | 0.00 | 0.00 | 68 | 1002.9 |
| 20260506192628 | 67 | 218 | 2.0 | 5.0 | 0.00 | 0.00 | 0.00 | 69 | 1003.0 |
| 20260506191625 | 67 | 158 | 3.0 | 5.0 | 0.00 | 0.00 | 0.00 | 67 | 1003.0 |
| 20260506191125 | 67 | 245 | 2.0 | 6.0 | 0.00 | 0.00 | 0.00 | 68 | 1003.1 |
| 20260506190625 | 67 | 247 | 3.0 | 8.0 | 0.00 | 0.00 | 0.00 | 70 | 1003.2 |
| 20260506190125 | 66 | 263 | 3.0 | 9.0 | 0.00 | 0.00 | 0.00 | 68 | 1003.2 |
| 20260506185625 | 66 | 225 | 3.0 | 9.0 | 0.00 | 0.00 | 0.00 | 70 | 1003.3 |
| 20260506185125 | 66 | 267 | 3.0 | 7.0 | 0.00 | 0.00 | 0.00 | 70 | 1003.2 |
| 20260506184125 | 65 | 209 | 3.0 | 7.0 | 0.00 | 0.00 | 0.00 | 71 | 1003.2 |
| 20260506183623 | 65 | 242 | 3.0 | 7.0 | 0.00 | 0.00 | 0.00 | 71 | 1003.3 |
| 20260506181620 | 64 | 242 | 2.0 | 6.0 | 0.00 | 0.00 | 0.00 | 72 | 1003.3 |
| 20260506181120 | 64 | 280 | 3.0 | 6.0 | 0.00 | 0.00 | 0.00 | 72 | 1003.2 |
| 20260506180619 | 64 | 244 | 3.0 | 6.0 | 0.00 | 0.00 | 0.00 | 72 | 1003.1 |
| 20260506180118 | 64 | 278 | 2.0 | 5.0 | 0.00 | 0.00 | 0.00 | 72 | 1003.2 |
| 20260506175618 | 64 | 206 | 2.0 | 6.0 | 0.00 | 0.00 | 0.00 | 73 | 1003.2 |
| 20260506175120 | 64 | 222 | 2.0 | 6.0 | 0.00 | 0.00 | 0.00 | 73 | 1003.2 |
| 20260506174618 | 63 | 242 | 2.0 | 7.0 | 0.00 | 0.00 | 0.00 | 74 | 1003.1 |
| 20260506173620 | 63 | 242 | 1.0 | 5.0 | 0.00 | 0.00 | 0.00 | 75 | 1003.2 |
| 20260506172616 | 62 | 213 | 2.0 | 6.0 | 0.00 | 0.00 | 0.00 | 75 | 1003.2 |
| 20260506172114 | 62 | 180 | 2.0 | 4.0 | 0.00 | 0.00 | 0.00 | 75 | 1003.4 |
| 20260506171615 | 62 | 259 | 2.0 | 6.0 | 0.00 | 0.00 | 0.00 | 76 | 1003.3 |
| 20260506171115 | 61 | 211 | 3.0 | 8.0 | 0.00 | 0.00 | 0.00 | 77 | 1003.4 |
| 20260506170115 | 60 | 223 | 1.0 | 5.0 | 0.00 | 0.00 | 0.00 | 78 | 1003.2 |
| 20260506165115 | 60 | 288 | 2.0 | 6.0 | 0.00 | 0.00 | 0.00 | 79 | 1003.1 |
| 20260506164612 | 60 | 277 | 2.0 | 6.0 | 0.00 | 0.00 | 0.00 | 79 | 1003.1 |
| 20260506164111 | 59 | 230 | 1.0 | 4.0 | 0.00 | 0.00 | 0.00 | 79 | 1003.2 |
| 20260506163611 | 59 | 223 | 2.0 | 4.0 | 0.00 | 0.00 | 0.00 | 79 | 1003.2 |
| 20260506163111 | 59 | 273 | 2.0 | 4.0 | 0.00 | 0.00 | 0.00 | 80 | 1003.2 |
| 20260506162110 | 59 | 185 | 1.0 | 4.0 | 0.00 | 0.00 | 0.00 | 80 | 1003.2 |
| 20260506161612 | 58 | 231 | 2.0 | 4.0 | 0.00 | 0.00 | 0.00 | 81 | 1003.2 |
| 20260506161111 | 58 | 242 | 1.0 | 4.0 | 0.00 | 0.00 | 0.00 | 81 | 1003.2 |
| 20260506160610 | 58 | 276 | 1.0 | 4.0 | 0.00 | 0.00 | 0.00 | 83 | 1003.1 |
| 20260506155056 | 57 | 206 | 0.0 | 3.0 | 0.00 | 0.01 | 0.00 | 83 | 1003.2 |
| 20260506154551 | 56 | 205 | 0.0 | 2.0 | 0.00 | 0.01 | 0.00 | 83 | 1003.3 |
| 20260506154045 | 56 | 205 | 1.0 | 3.0 | 0.00 | 0.01 | 0.00 | 84 | 1003.2 |
| 20260506153539 | 56 | 205 | 1.0 | 3.0 | 0.00 | 0.01 | 0.00 | 84 | 1003.2 |
| 20260506153033 | 56 | 190 | 1.0 | 4.0 | 0.00 | 0.01 | 0.00 | 84 | 1003.2 |
| 20260506152527 | 56 | 188 | 1.0 | 4.0 | 0.00 | 0.01 | 0.00 | 84 | 1003.2 |
| 20260506152021 | 56 | 170 | 1.0 | 4.0 | 0.00 | 0.01 | 0.00 | 85 | 1003.1 |
| 20260506151515 | 56 | 191 | 0.0 | 3.0 | 0.00 | 0.01 | 0.00 | 85 | 1003.1 |
| 20260506150503 | 55 | 238 | 0.0 | 0.0 | 0.00 | 0.01 | 0.00 | 85 | 1003.1 |
| 20260506145957 | 55 | 240 | 0.0 | 0.0 | 0.00 | 0.01 | 0.00 | 85 | 1003.1 |
| 20260506145451 | 55 | 239 | 0.0 | 0.0 | 0.00 | 0.01 | 0.00 | 86 | 1003.1 |
| 20260506144945 | 55 | 238 | 0.0 | 0.0 | 0.00 | 0.01 | 0.00 | 86 | 1003.0 |
| 20260506144439 | 55 | 239 | 0.0 | 0.0 | 0.00 | 0.01 | 0.00 | 85 | 1003.1 |
| 20260506143933 | 55 | 239 | 0.0 | 0.0 | 0.00 | 0.01 | 0.00 | 86 | 1003.0 |
| 20260506143427 | 55 | 280 | 0.0 | 0.0 | 0.00 | 0.01 | 0.00 | 86 | 1002.9 |
| 20260506142921 | 55 | 281 | 0.0 | 0.0 | 0.00 | 0.01 | 0.00 | 86 | 1002.9 |
| 20260506142415 | 55 | 282 | 0.0 | 0.0 | 0.00 | 0.01 | 0.00 | 86 | 1002.8 |
| 20260506141909 | 55 | 283 | 0.0 | 0.0 | 0.00 | 0.01 | 0.00 | 86 | 1002.7 |
| 20260506141402 | 55 | 283 | 0.0 | 0.0 | 0.00 | 0.01 | 0.00 | 86 | 1002.8 |
| 20260506140856 | 55 | 283 | 0.0 | 0.0 | 0.00 | 0.01 | 0.00 | 86 | 1002.8 |
| 20260506140350 | 55 | 283 | 0.0 | 0.0 | 0.00 | 0.01 | 0.00 | 86 | 1002.6 |
| 20260506135845 | 55 | 283 | 0.0 | 0.0 | 0.00 | 0.01 | 0.00 | 85 | 1002.6 |
| 20260506135338 | 55 | 283 | 0.0 | 0.0 | 0.00 | 0.01 | 0.00 | 85 | 1002.6 |
| 20260506134833 | 55 | 283 | 0.0 | 0.0 | 0.00 | 0.01 | 0.00 | 85 | 1002.6 |
| 20260506134327 | 55 | 283 | 0.0 | 0.0 | 0.00 | 0.01 | 0.00 | 85 | 1002.5 |
| 20260506133314 | 55 | 283 | 0.0 | 0.0 | 0.00 | 0.01 | 0.00 | 85 | 1002.6 |
| 20260506132809 | 55 | 283 | 0.0 | 0.0 | 0.00 | 0.01 | 0.00 | 85 | 1002.5 |
| 20260506132306 | 55 | 283 | 0.0 | 0.0 | 0.00 | 0.01 | 0.00 | 85 | 1002.5 |
| 20260506131757 | 55 | 282 | 0.0 | 0.0 | 0.00 | 0.01 | 0.00 | 85 | 1002.5 |
| 20260506131251 | 55 | 282 | 0.0 | 0.0 | 0.00 | 0.01 | 0.00 | 84 | 1002.4 |
| 20260506130745 | 55 | 282 | 0.0 | 0.0 | 0.00 | 0.01 | 0.00 | 84 | 1002.4 |
| 20260506130238 | 55 | 282 | 0.0 | 0.0 | 0.00 | 0.01 | 0.00 | 84 | 1002.3 |
| 20260506125733 | 55 | 282 | 0.0 | 0.0 | 0.00 | 0.01 | 0.00 | 84 | 1002.3 |
| 20260506125227 | 55 | 282 | 0.0 | 0.0 | 0.00 | 0.01 | 0.00 | 84 | 1002.3 |
| 20260506124720 | 55 | 282 | 0.0 | 0.0 | 0.00 | 0.01 | 0.00 | 84 | 1002.3 |
| 20260506124215 | 55 | 282 | 0.0 | 0.0 | 0.00 | 0.01 | 0.00 | 84 | 1002.2 |
| 20260506123709 | 55 | 282 | 0.0 | 0.0 | 0.00 | 0.01 | 0.00 | 84 | 1002.2 |
| 20260506122658 | 55 | 282 | 0.0 | 0.0 | 0.00 | 0.01 | 0.00 | 84 | 1002.2 |
| 20260506122151 | 55 | 282 | 0.0 | 0.0 | 0.00 | 0.01 | 0.00 | 84 | 1002.1 |
| 20260506121644 | 55 | 282 | 0.0 | 0.0 | 0.00 | 0.01 | 0.00 | 84 | 1002.2 |
| 20260506120633 | 55 | 282 | 0.0 | 0.0 | 0.00 | 0.01 | 0.00 | 84 | 1002.1 |
| 20260506120127 | 55 | 282 | 0.0 | 0.0 | 0.00 | 0.01 | 0.00 | 84 | 1002.1 |
| 20260506115621 | 55 | 282 | 0.0 | 0.0 | 0.00 | 0.01 | 0.00 | 84 | 1002.0 |
| 20260506115116 | 55 | 282 | 0.0 | 0.0 | 0.00 | 0.01 | 0.00 | 84 | 1002.0 |
| 20260506114609 | 55 | 282 | 0.0 | 0.0 | 0.00 | 0.01 | 0.00 | 84 | 1002.0 |
| 20260506114103 | 55 | 282 | 0.0 | 0.0 | 0.00 | 0.01 | 0.00 | 84 | 1001.9 |
| 20260506113051 | 55 | 282 | 0.0 | 0.0 | 0.00 | 0.01 | 0.00 | 84 | 1002.0 |
| 20260506112544 | 55 | 282 | 0.0 | 0.0 | 0.00 | 0.01 | 0.00 | 84 | 1001.9 |
| 20260506112038 | 55 | 282 | 0.0 | 0.0 | 0.00 | 0.01 | 0.00 | 84 | 1001.9 |
| 20260506111533 | 55 | 282 | 0.0 | 0.0 | 0.00 | 0.01 | 0.00 | 84 | 1001.8 |
| 20260506110015 | 55 | 282 | 0.0 | 0.0 | 0.00 | 0.01 | 0.00 | 84 | 1001.7 |
| 20260506105509 | 55 | 282 | 0.0 | 0.0 | 0.00 | 0.01 | 0.00 | 84 | 1001.7 |
| 20260506105002 | 55 | 282 | 0.0 | 0.0 | 0.00 | 0.01 | 0.00 | 84 | 1001.7 |
| 20260506104457 | 55 | 282 | 0.0 | 0.0 | 0.00 | 0.01 | 0.00 | 83 | 1001.7 |
| 20260506103951 | 54 | 282 | 0.0 | 0.0 | 0.00 | 0.01 | 0.00 | 83 | 1001.7 |
| 20260506103445 | 54 | 286 | 0.0 | 0.0 | 0.00 | 0.01 | 0.00 | 83 | 1001.6 |
| 20260506102939 | 54 | 286 | 0.0 | 0.0 | 0.00 | 0.01 | 0.00 | 83 | 1001.6 |
| 20260506102432 | 54 | 286 | 0.0 | 0.0 | 0.00 | 0.01 | 0.00 | 83 | 1001.5 |
| 20260506101926 | 54 | 286 | 0.0 | 0.0 | 0.00 | 0.01 | 0.00 | 83 | 1001.5 |
| 20260506101420 | 55 | 286 | 0.0 | 0.0 | 0.00 | 0.01 | 0.00 | 83 | 1001.5 |
| 20260506100915 | 55 | 286 | 0.0 | 0.0 | 0.00 | 0.01 | 0.00 | 83 | 1001.5 |
| 20260506100408 | 54 | 286 | 0.0 | 0.0 | 0.00 | 0.01 | 0.00 | 83 | 1001.5 |
| 20260506095903 | 54 | 286 | 0.0 | 0.0 | 0.00 | 0.01 | 0.00 | 84 | 1001.5 |
| 20260506094851 | 54 | 277 | 0.0 | 0.0 | 0.00 | 0.01 | 0.00 | 84 | 1001.5 |
| 20260506094345 | 55 | 277 | 0.0 | 0.0 | 0.00 | 0.01 | 0.00 | 84 | 1001.6 |
| 20260506093838 | 54 | 277 | 0.0 | 0.0 | 0.00 | 0.01 | 0.00 | 84 | 1001.7 |
| 20260506093333 | 54 | 240 | 0.0 | 0.0 | 0.00 | 0.01 | 0.00 | 84 | 1001.6 |
| 20260506092827 | 54 | 259 | 0.0 | 0.0 | 0.00 | 0.01 | 0.00 | 84 | 1001.6 |
| 20260506092321 | 54 | 259 | 0.0 | 0.0 | 0.00 | 0.01 | 0.00 | 84 | 1001.6 |
| 20260506091815 | 54 | 259 | 0.0 | 0.0 | 0.00 | 0.02 | 0.00 | 84 | 1001.6 |
| 20260506090256 | 54 | 259 | 0.0 | 2.0 | 0.00 | 0.03 | 0.00 | 83 | 1001.5 |
| 20260506085751 | 54 | 257 | 0.0 | 2.0 | 0.00 | 0.03 | 0.00 | 84 | 1001.6 |
| 20260506085244 | 54 | 250 | 0.0 | 3.0 | 0.00 | 0.04 | 0.00 | 83 | 1001.6 |
| 20260506084738 | 54 | 268 | 0.0 | 3.0 | 0.00 | 0.04 | 0.00 | 83 | 1001.6 |
| 20260506084232 | 54 | 265 | 0.0 | 1.0 | 0.00 | 0.05 | 0.00 | 83 | 1001.5 |
| 20260506083726 | 54 | 240 | 0.0 | 0.0 | 0.00 | 0.05 | 0.00 | 83 | 1001.4 |
| 20260506083220 | 55 | 264 | 0.0 | 0.0 | 0.00 | 0.05 | 0.00 | 83 | 1001.6 |
| 20260506082715 | 55 | 244 | 0.0 | 0.0 | 0.00 | 0.05 | 0.00 | 83 | 1001.7 |
| 20260506082208 | 55 | 244 | 0.0 | 0.0 | 0.00 | 0.05 | 0.00 | 83 | 1001.6 |
| 20260506081703 | 55 | 244 | 0.0 | 0.0 | 0.00 | 0.05 | 0.00 | 83 | 1001.7 |
| 20260506081200 | 55 | 242 | 0.0 | 0.0 | 0.00 | 0.05 | 0.00 | 83 | 1001.6 |
| 20260506080650 | 55 | 242 | 0.0 | 0.0 | 0.00 | 0.06 | 0.00 | 83 | 1001.6 |
| 20260506080144 | 55 | 242 | 0.0 | 0.0 | 0.00 | 0.06 | 0.00 | 83 | 1001.6 |